Flag for U.S.A. Weather past 2 weeks in Daytona Beach, Florida, U.S.A.

Now
80 °F

Broken clouds.


Feels Like: 82 °F
Forecast: 61 / 78 °F
Wind: 6 mph from Southwest

Location: Daytona Beach Regional Airport

Current Time: Dec 28, 2014 at 2:27:37 PM

Latest Report: Dec 28, 2014 at 1:53 PM


Visibility: 10 mi

Pressure: 30.09 "Hg

Humidity: 64%

Dew point: 67 °F

Location of Daytona BeachLocation

Historic Weather in Daytona Beach — Graph

°F

Daytona Beach temperature yesterday

Maximum temperature yesterday: 78 °F (at 12:53 PM)
Minimum temperature yesterday: 62 °F (at 2:53 AM)
Average temperature yesterday: 69 °F

Past Weeks' High & Low Weather Summary

 TemperatureHumidityPressure
High82 °F (Dec 24, 12:53 PM)100% (Dec 22, 2:53 AM)30.28 "Hg (Dec 22, 2:53 AM)
Low40 °F (Dec 14, 6:53 AM)26% (Dec 13, 1:53 PM)29.81 "Hg (Dec 24, 2:53 PM)
Average62 °F80%30.09 "Hg
* Reported Dec 13 12:53 PM — Dec 28 12:53 PM, Daytona Beach, Weather by CustomWeather, © 2014

Note: Actual official high and low records may vary slightly from our data, if they occured in-between our weather recording intervals... More about our weather records

Advertising

Daytona Beach weather history for previous 24 hours

 ConditionsComfort  
Time TempWeatherWind HumidityBarometerVisibility
12:53 PM
Dec 28
78 °FBroken clouds.8 mph74%30.11 "Hg10 mi
11:53 AM78 °FBroken clouds.9 mph76%30.14 "Hg10 mi
10:53 AM74 °FPartly sunny.6 mph88%30.17 "Hg10 mi
9:53 AM69 °FFog.3 mph100%30.19 "Hg1 mi
8:53 AM68 °FFog.No wind96%30.18 "Hg2 mi
7:53 AM65 °FFog.3 mph100%30.16 "Hg0 mi
6:53 AM64 °FFog.3 mph100%30.14 "Hg1 mi
5:53 AM65 °FFog.No wind97%30.13 "Hg0 mi
4:53 AM64 °FFog.No wind100%30.13 "Hg3 mi
3:53 AM65 °FPassing clouds.No wind97%30.14 "Hg8 mi
2:53 AM65 °FFog.No wind97%30.15 "Hg6 mi
1:53 AM66 °FFog.No wind96%30.16 "Hg6 mi
12:53 AM67 °FPassing clouds.No wind93%30.16 "Hg7 mi
11:53 PM
Dec 27
67 °FFog.No wind93%30.19 "Hg5 mi
10:53 PM67 °FFog.No wind93%30.20 "Hg6 mi
9:53 PM68 °FPassing clouds.No wind93%30.21 "Hg7 mi
8:53 PM69 °FPassing clouds.3 mph93%30.21 "Hg9 mi
7:53 PM69 °FPassing clouds.3 mph93%30.19 "Hg9 mi
6:53 PM70 °FPassing clouds.5 mph90%30.19 "Hg10 mi
5:53 PM72 °FPassing clouds.6 mph84%30.18 "Hg10 mi
4:53 PM73 °FPartly sunny.6 mph81%30.17 "Hg10 mi
3:53 PM76 °FPartly sunny.10 mph74%30.17 "Hg10 mi
2:53 PM78 °FPartly sunny.9 mph69%30.17 "Hg10 mi
Weather by CustomWeather, © 2014

See weather overviewHow to use our weather pages